| time (UTC) | temp C | wind direction | speed KPH | gust KPH | rain 1hr cm | rain 24hr cm | rain mn cm | humidity % | barometer mb |
| 20260505095123 | 19 | 154 | 4.8 | 8.0 | 0.00 | 0.00 | 0.00 | 51 | 912.0 |
| 20260505094623 | 19 | 179 | 6.4 | 17.7 | 0.00 | 0.00 | 0.00 | 51 | 911.9 |
| 20260505094123 | 19 | 148 | 8.0 | 20.9 | 0.00 | 0.00 | 0.00 | 52 | 911.8 |
| 20260505093623 | 19 | 147 | 6.4 | 20.9 | 0.00 | 0.00 | 0.00 | 51 | 911.8 |
| 20260505093123 | 19 | 145 | 9.7 | 9.7 | 0.00 | 0.00 | 0.00 | 51 | 911.7 |
| 20260505092623 | 19 | 163 | 11.3 | 25.7 | 0.00 | 0.00 | 0.00 | 51 | 911.7 |
| 20260505092123 | 19 | 147 | 8.0 | 20.9 | 0.00 | 0.00 | 0.00 | 51 | 911.7 |
| 20260505091623 | 20 | 146 | 6.4 | 25.7 | 0.00 | 0.00 | 0.00 | 51 | 911.8 |
| 20260505091123 | 20 | 143 | 4.8 | 14.5 | 0.00 | 0.00 | 0.00 | 51 | 911.5 |
| 20260505090623 | 20 | 145 | 6.4 | 8.0 | 0.00 | 0.00 | 0.00 | 51 | 911.6 |
| 20260505090123 | 20 | 143 | 8.0 | 19.3 | 0.00 | 0.00 | 0.00 | 51 | 911.5 |
| 20260505085623 | 20 | 153 | 8.0 | 17.7 | 0.00 | 0.00 | 0.00 | 50 | 911.4 |
| 20260505085123 | 20 | 152 | 8.0 | 20.9 | 0.00 | 0.00 | 0.00 | 50 | 911.5 |
| 20260505084623 | 20 | 149 | 8.0 | 19.3 | 0.00 | 0.00 | 0.00 | 50 | 911.5 |
| 20260505084123 | 20 | 145 | 9.7 | 17.7 | 0.00 | 0.00 | 0.00 | 49 | 911.5 |
| 20260505083623 | 20 | 158 | 12.9 | 20.9 | 0.00 | 0.00 | 0.00 | 49 | 911.4 |
| 20260505083123 | 20 | 139 | 11.3 | 27.4 | 0.00 | 0.00 | 0.00 | 48 | 911.3 |
| 20260505082623 | 21 | 146 | 8.0 | 17.7 | 0.00 | 0.00 | 0.00 | 48 | 911.3 |
| 20260505082123 | 21 | 147 | 8.0 | 19.3 | 0.00 | 0.00 | 0.00 | 47 | 911.4 |
| 20260505081623 | 21 | 146 | 8.0 | 19.3 | 0.00 | 0.00 | 0.00 | 47 | 911.3 |
| 20260505081123 | 21 | 151 | 6.4 | 20.9 | 0.00 | 0.00 | 0.00 | 46 | 911.3 |
| 20260505080623 | 21 | 133 | 6.4 | 12.9 | 0.00 | 0.00 | 0.00 | 45 | 911.2 |
| 20260505080123 | 21 | 143 | 8.0 | 16.1 | 0.00 | 0.00 | 0.00 | 45 | 911.2 |
| 20260505075623 | 21 | 147 | 6.4 | 16.1 | 0.00 | 0.00 | 0.00 | 44 | 911.2 |
| 20260505075123 | 21 | 145 | 8.0 | 19.3 | 0.00 | 0.00 | 0.00 | 45 | 911.1 |
| 20260505074623 | 21 | 152 | 8.0 | 24.1 | 0.00 | 0.00 | 0.00 | 44 | 911.2 |
| 20260505074123 | 21 | 154 | 9.7 | 24.1 | 0.00 | 0.00 | 0.00 | 44 | 911.2 |
| 20260505073623 | 21 | 147 | 9.7 | 22.5 | 0.00 | 0.00 | 0.00 | 44 | 911.1 |
| 20260505073123 | 21 | 150 | 8.0 | 22.5 | 0.00 | 0.00 | 0.00 | 44 | 911.1 |
| 20260505072623 | 21 | 151 | 6.4 | 14.5 | 0.00 | 0.00 | 0.00 | 44 | 911.1 |
| 20260505072123 | 21 | 143 | 9.7 | 24.1 | 0.00 | 0.00 | 0.00 | 45 | 911.1 |
| 20260505071623 | 21 | 162 | 9.7 | 24.1 | 0.00 | 0.00 | 0.00 | 44 | 911.0 |
| 20260505071123 | 21 | 145 | 8.0 | 16.1 | 0.00 | 0.00 | 0.00 | 44 | 911.0 |
| 20260505070623 | 22 | 158 | 8.0 | 17.7 | 0.00 | 0.00 | 0.00 | 44 | 910.9 |
| 20260505070123 | 22 | 161 | 8.0 | 17.7 | 0.00 | 0.03 | 0.00 | 44 | 910.9 |
| 20260505065623 | 21 | 141 | 9.7 | 19.3 | 0.00 | 0.03 | 0.00 | 44 | 910.9 |
| 20260505065123 | 22 | 313 | 9.7 | 22.5 | 0.00 | 0.03 | 0.00 | 45 | 910.8 |
| 20260505064623 | 21 | 152 | 11.3 | 17.7 | 0.00 | 0.03 | 0.00 | 45 | 910.9 |
| 20260505064123 | 21 | 141 | 11.3 | 29.0 | 0.00 | 0.03 | 0.00 | 45 | 910.8 |
| 20260505063623 | 21 | 148 | 11.3 | 22.5 | 0.00 | 0.03 | 0.00 | 46 | 910.7 |
| 20260505063123 | 22 | 152 | 9.7 | 22.5 | 0.00 | 0.03 | 0.00 | 45 | 910.7 |
| 20260505062623 | 22 | 145 | 9.7 | 22.5 | 0.00 | 0.03 | 0.00 | 45 | 910.8 |
| 20260505062123 | 22 | 152 | 9.7 | 17.7 | 0.00 | 0.03 | 0.00 | 45 | 910.9 |
| 20260505061623 | 22 | 139 | 8.0 | 17.7 | 0.00 | 0.03 | 0.00 | 45 | 910.8 |
| 20260505061123 | 22 | 144 | 9.7 | 17.7 | 0.00 | 0.03 | 0.00 | 45 | 910.8 |
| 20260505060623 | 22 | 172 | 8.0 | 22.5 | 0.00 | 0.03 | 0.00 | 44 | 910.7 |
| 20260505060124 | 22 | 359 | 8.0 | 20.9 | 0.00 | 0.03 | 0.00 | 44 | 910.6 |
| 20260505055623 | 22 | 135 | 9.7 | 14.5 | 0.00 | 0.03 | 0.00 | 44 | 910.6 |
| 20260505055124 | 22 | 145 | 12.9 | 29.0 | 0.00 | 0.03 | 0.00 | 43 | 910.5 |
| 20260505054623 | 22 | 158 | 11.3 | 25.7 | 0.00 | 0.03 | 0.00 | 43 | 910.6 |
| 20260505054123 | 22 | 174 | 8.0 | 22.5 | 0.00 | 0.03 | 0.00 | 43 | 910.6 |
| 20260505053623 | 22 | 141 | 9.7 | 17.7 | 0.00 | 0.03 | 0.00 | 42 | 910.5 |
| 20260505053124 | 22 | 141 | 9.7 | 25.7 | 0.00 | 0.03 | 0.00 | 41 | 910.6 |
| 20260505052624 | 22 | 149 | 8.0 | 17.7 | 0.00 | 0.03 | 0.00 | 40 | 910.6 |
| 20260505052124 | 22 | 145 | 9.7 | 25.7 | 0.00 | 0.03 | 0.00 | 38 | 910.6 |
| 20260505051624 | 22 | 143 | 9.7 | 22.5 | 0.00 | 0.03 | 0.00 | 37 | 910.6 |
| 20260505051124 | 22 | 137 | 8.0 | 19.3 | 0.00 | 0.03 | 0.00 | 37 | 910.6 |
| 20260505050624 | 22 | 106 | 8.0 | 22.5 | 0.00 | 0.03 | 0.00 | 35 | 910.5 |
| 20260505050124 | 22 | 130 | 8.0 | 22.5 | 0.00 | 0.03 | 0.00 | 35 | 910.5 |
| 20260505041624 | 22 | 143 | 6.4 | 14.5 | 0.00 | 0.03 | 0.00 | 32 | 910.5 |
| 20260505041124 | 22 | 145 | 6.4 | 14.5 | 0.00 | 0.03 | 0.00 | 31 | 910.5 |
| 20260505040624 | 22 | 149 | 4.8 | 12.9 | 0.00 | 0.03 | 0.00 | 31 | 910.6 |
| 20260505040124 | 22 | 139 | 4.8 | 14.5 | 0.00 | 0.03 | 0.00 | 31 | 910.5 |
| 20260505035624 | 22 | 177 | 4.8 | 11.3 | 0.00 | 0.03 | 0.00 | 31 | 910.5 |
| 20260505035124 | 22 | 146 | 4.8 | 9.7 | 0.00 | 0.03 | 0.00 | 30 | 910.6 |
| 20260505034624 | 22 | 153 | 4.8 | 17.7 | 0.00 | 0.03 | 0.00 | 29 | 910.5 |
| 20260505034124 | 22 | 137 | 3.2 | 6.4 | 0.00 | 0.03 | 0.00 | 29 | 910.5 |
| 20260505033624 | 22 | 149 | 3.2 | 12.9 | 0.00 | 0.03 | 0.00 | 29 | 910.6 |
| 20260505033124 | 22 | 170 | 1.6 | 8.0 | 0.00 | 0.03 | 0.00 | 30 | 910.6 |
| 20260505032624 | 21 | 46 | 3.2 | 6.4 | 0.00 | 0.03 | 0.00 | 30 | 910.6 |
| 20260505032124 | 21 | 208 | 3.2 | 14.5 | 0.00 | 0.03 | 0.00 | 29 | 910.7 |
| 20260505031624 | 21 | 142 | 1.6 | 8.0 | 0.00 | 0.03 | 0.00 | 29 | 910.7 |
| 20260505031124 | 21 | 9 | 1.6 | 4.8 | 0.00 | 0.03 | 0.00 | 30 | 910.7 |
| 20260505030624 | 20 | 159 | 3.2 | 9.7 | 0.00 | 0.03 | 0.00 | 31 | 910.9 |
| 20260505030124 | 21 | 193 | 4.8 | 8.0 | 0.00 | 0.03 | 0.00 | 31 | 910.9 |
| 20260505025624 | 21 | 196 | 3.2 | 16.1 | 0.00 | 0.03 | 0.00 | 31 | 910.9 |
| 20260505025124 | 20 | 217 | 1.6 | 4.8 | 0.00 | 0.03 | 0.00 | 31 | 910.8 |
| 20260505024624 | 20 | 39 | 1.6 | 3.2 | 0.00 | 0.03 | 0.00 | 32 | 910.8 |
| 20260505024124 | 20 | 34 | 1.6 | 4.8 | 0.00 | 0.03 | 0.00 | 36 | 910.9 |
| 20260505023624 | 19 | 32 | 1.6 | 4.8 | 0.00 | 0.03 | 0.00 | 34 | 910.9 |
| 20260505023124 | 19 | 29 | 3.2 | 4.8 | 0.00 | 0.03 | 0.00 | 34 | 910.8 |
| 20260505022624 | 18 | 26 | 1.6 | 8.0 | 0.00 | 0.03 | 0.00 | 32 | 910.9 |
| 20260505022124 | 18 | 44 | 3.2 | 3.2 | 0.00 | 0.03 | 0.00 | 32 | 911.0 |
| 20260505021624 | 18 | 46 | 6.4 | 12.9 | 0.00 | 0.03 | 0.00 | 37 | 911.2 |
| 20260505021124 | 18 | 348 | 8.0 | 14.5 | 0.00 | 0.03 | 0.00 | 41 | 911.3 |
| 20260505020624 | 18 | 25 | 6.4 | 14.5 | 0.00 | 0.03 | 0.00 | 39 | 911.3 |
| 20260505020124 | 18 | 10 | 3.2 | 14.5 | 0.00 | 0.03 | 0.00 | 36 | 911.4 |
| 20260505015624 | 17 | 17 | 3.2 | 3.2 | 0.00 | 0.03 | 0.00 | 36 | 911.4 |
| 20260505015124 | 17 | 14 | 4.8 | 14.5 | 0.00 | 0.03 | 0.00 | 43 | 911.4 |
| 20260505014624 | 17 | 21 | 4.8 | 14.5 | 0.00 | 0.03 | 0.00 | 51 | 911.4 |
| 20260505014124 | 17 | 35 | 6.4 | 12.9 | 0.00 | 0.03 | 0.00 | 46 | 911.4 |
| 20260505013624 | 17 | 36 | 6.4 | 16.1 | 0.00 | 0.03 | 0.00 | 42 | 911.5 |
| 20260505013124 | 16 | 33 | 4.8 | 12.9 | 0.00 | 0.03 | 0.00 | 46 | 911.5 |
| 20260505012624 | 16 | 33 | 3.2 | 14.5 | 0.00 | 0.03 | 0.00 | 47 | 911.5 |
| 20260505012124 | 16 | 31 | 3.2 | 14.5 | 0.00 | 0.03 | 0.00 | 47 | 911.5 |
| 20260505011624 | 16 | 68 | 3.2 | 6.4 | 0.00 | 0.03 | 0.00 | 48 | 911.5 |
| 20260505011124 | 16 | 30 | 3.2 | 14.5 | 0.00 | 0.03 | 0.00 | 48 | 911.5 |
| 20260505010624 | 16 | 34 | 1.6 | 6.4 | 0.00 | 0.03 | 0.00 | 49 | 911.5 |
| 20260505010124 | 16 | 36 | 3.2 | 9.7 | 0.00 | 0.03 | 0.00 | 50 | 911.5 |
| 20260505005624 | 16 | 30 | 4.8 | 8.0 | 0.00 | 0.03 | 0.00 | 48 | 911.5 |
| 20260505005124 | 15 | 33 | 3.2 | 9.7 | 0.00 | 0.03 | 0.00 | 52 | 911.6 |
| 20260505004624 | 15 | 29 | 4.8 | 9.7 | 0.00 | 0.03 | 0.00 | 51 | 911.5 |
| 20260505004124 | 15 | 35 | 6.4 | 14.5 | 0.00 | 0.03 | 0.00 | 49 | 911.4 |
| 20260505003624 | 15 | 43 | 4.8 | 14.5 | 0.00 | 0.03 | 0.00 | 46 | 911.4 |
| 20260505003124 | 15 | 25 | 6.4 | 9.7 | 0.00 | 0.03 | 0.00 | 50 | 911.4 |
| 20260505002624 | 15 | 26 | 4.8 | 16.1 | 0.00 | 0.03 | 0.00 | 54 | 911.3 |
| 20260505002124 | 15 | 35 | 3.2 | 9.7 | 0.00 | 0.03 | 0.00 | 61 | 911.3 |
| 20260505001624 | 15 | 42 | 3.2 | 8.0 | 0.00 | 0.03 | 0.00 | 52 | 911.3 |
| 20260505001124 | 15 | 28 | 3.2 | 9.7 | 0.00 | 0.03 | 0.00 | 50 | 911.4 |
| 20260505000624 | 15 | 31 | 4.8 | 12.9 | 0.00 | 0.03 | 0.00 | 54 | 911.4 |
| 20260505000124 | 15 | 39 | 3.2 | 8.0 | 0.00 | 0.03 | 0.00 | 53 | 911.4 |
| 20260504235624 | 14 | 42 | 4.8 | 6.4 | 0.00 | 0.03 | 0.00 | 67 | 911.3 |
| 20260504235124 | 14 | 26 | 4.8 | 14.5 | 0.00 | 0.03 | 0.00 | 62 | 911.3 |
| 20260504234624 | 14 | 38 | 6.4 | 14.5 | 0.00 | 0.03 | 0.00 | 55 | 911.3 |
| 20260504234124 | 14 | 35 | 6.4 | 14.5 | 0.00 | 0.03 | 0.00 | 56 | 911.3 |
| 20260504233624 | 13 | 33 | 6.4 | 16.1 | 0.00 | 0.03 | 0.00 | 54 | 911.3 |
| 20260504233124 | 13 | 29 | 8.0 | 16.1 | 0.00 | 0.03 | 0.00 | 57 | 911.4 |
| 20260504232624 | 13 | 38 | 8.0 | 14.5 | 0.00 | 0.03 | 0.00 | 57 | 911.3 |
| 20260504232124 | 13 | 27 | 8.0 | 17.7 | 0.00 | 0.03 | 0.00 | 56 | 911.3 |
| 20260504231624 | 13 | 41 | 6.4 | 16.1 | 0.00 | 0.03 | 0.00 | 60 | 911.4 |
| 20260504231124 | 13 | 37 | 8.0 | 11.3 | 0.00 | 0.03 | 0.00 | 62 | 911.3 |
| 20260504230624 | 13 | 4 | 8.0 | 16.1 | 0.00 | 0.03 | 0.00 | 58 | 911.3 |
| 20260504230124 | 13 | 27 | 6.4 | 17.7 | 0.00 | 0.03 | 0.00 | 58 | 911.3 |
| 20260504225624 | 13 | 9 | 6.4 | 16.1 | 0.00 | 0.03 | 0.00 | 61 | 911.3 |
| 20260504225124 | 13 | 33 | 8.0 | 14.5 | 0.00 | 0.03 | 0.00 | 61 | 911.2 |
| 20260504224624 | 13 | 29 | 8.0 | 17.7 | 0.00 | 0.03 | 0.00 | 65 | 911.3 |
| 20260504224124 | 12 | 31 | 8.0 | 16.1 | 0.00 | 0.03 | 0.00 | 59 | 911.3 |
| 20260504223624 | 12 | 37 | 8.0 | 16.1 | 0.00 | 0.03 | 0.00 | 63 | 911.3 |
| 20260504223125 | 12 | 39 | 6.4 | 14.5 | 0.00 | 0.03 | 0.00 | 63 | 911.2 |
| 20260504222624 | 12 | 37 | 4.8 | 14.5 | 0.00 | 0.03 | 0.00 | 62 | 911.3 |
| 20260504222125 | 12 | 30 | 3.2 | 9.7 | 0.00 | 0.03 | 0.00 | 65 | 911.2 |
| 20260504221625 | 12 | 38 | 1.6 | 6.4 | 0.00 | 0.03 | 0.00 | 64 | 911.2 |
| 20260504221125 | 12 | 35 | 0.0 | 4.8 | 0.00 | 0.03 | 0.00 | 64 | 911.0 |
| 20260504220625 | 12 | 35 | 0.0 | 3.2 | 0.00 | 0.03 | 0.00 | 66 | 911.0 |
| 20260504220125 | 12 | 35 | 1.6 | 3.2 | 0.00 | 0.03 | 0.00 | 66 | 910.9 |
| 20260504215625 | 12 | 34 | 1.6 | 4.8 | 0.00 | 0.03 | 0.00 | 65 | 910.9 |
| 20260504215125 | 12 | 32 | 1.6 | 8.0 | 0.00 | 0.03 | 0.00 | 69 | 910.8 |
| 20260504214625 | 12 | 36 | 1.6 | 8.0 | 0.00 | 0.03 | 0.00 | 69 | 910.8 |
| 20260504214125 | 12 | 39 | 3.2 | 8.0 | 0.00 | 0.03 | 0.00 | 73 | 910.7 |
| 20260504213625 | 12 | 33 | 3.2 | 8.0 | 0.00 | 0.03 | 0.00 | 70 | 910.7 |
| 20260504213125 | 12 | 38 | 3.2 | 8.0 | 0.00 | 0.03 | 0.00 | 67 | 910.6 |
| 20260504212625 | 12 | 37 | 1.6 | 6.4 | 0.00 | 0.03 | 0.00 | 67 | 910.5 |
| 20260504212125 | 12 | 40 | 1.6 | 3.2 | 0.00 | 0.03 | 0.00 | 69 | 910.5 |
| 20260504211625 | 12 | 40 | 1.6 | 3.2 | 0.00 | 0.03 | 0.00 | 68 | 910.5 |
| 20260504211125 | 12 | 41 | 3.2 | 4.8 | 0.00 | 0.03 | 0.00 | 69 | 910.3 |
| 20260504210625 | 12 | 45 | 3.2 | 4.8 | 0.00 | 0.03 | 0.00 | 68 | 910.3 |
| 20260504210125 | 12 | 40 | 3.2 | 8.0 | 0.00 | 0.03 | 0.00 | 74 | 910.0 |
| 20260504205625 | 11 | 32 | 3.2 | 8.0 | 0.00 | 0.03 | 0.00 | 68 | 910.0 |
| 20260504205125 | 11 | 43 | 1.6 | 4.8 | 0.00 | 0.03 | 0.00 | 67 | 909.9 |
| 20260504204625 | 11 | 38 | 0.0 | 1.6 | 0.00 | 0.03 | 0.00 | 69 | 909.9 |
| 20260504204125 | 11 | 40 | 0.0 | 3.2 | 0.00 | 0.03 | 0.00 | 69 | 909.8 |
| 20260504203625 | 11 | 40 | 0.0 | 1.6 | 0.00 | 0.03 | 0.00 | 69 | 909.6 |
| 20260504203125 | 11 | 40 | 1.6 | 3.2 | 0.00 | 0.03 | 0.00 | 68 | 909.5 |
| 20260504202625 | 11 | 39 | 4.8 | 8.0 | 0.00 | 0.03 | 0.00 | 65 | 909.4 |
| 20260504202125 | 11 | 29 | 8.0 | 14.5 | 0.00 | 0.03 | 0.00 | 65 | 909.1 |
| 20260504201625 | 11 | 15 | 9.7 | 16.1 | 0.00 | 0.03 | 0.00 | 64 | 909.0 |
| 20260504201125 | 11 | 21 | 9.7 | 17.7 | 0.00 | 0.03 | 0.00 | 64 | 909.0 |
| 20260504200625 | 11 | 29 | 9.7 | 17.7 | 0.00 | 0.03 | 0.00 | 65 | 908.8 |
| 20260504200125 | 11 | 36 | 8.0 | 16.1 | 0.00 | 0.03 | 0.00 | 64 | 908.8 |
| 20260504195625 | 11 | 46 | 8.0 | 19.3 | 0.00 | 0.03 | 0.00 | 65 | 908.7 |
| 20260504195125 | 11 | 31 | 8.0 | 17.7 | 0.00 | 0.03 | 0.00 | 64 | 908.7 |
| 20260504194625 | 11 | 37 | 6.4 | 11.3 | 0.00 | 0.03 | 0.00 | 67 | 908.7 |
| 20260504194125 | 11 | 33 | 8.0 | 16.1 | 0.00 | 0.03 | 0.00 | 66 | 908.6 |
| 20260504193625 | 11 | 4 | 9.7 | 16.1 | 0.00 | 0.03 | 0.00 | 64 | 908.6 |
| 20260504193125 | 11 | 31 | 9.7 | 17.7 | 0.00 | 0.03 | 0.00 | 64 | 908.6 |
| 20260504192625 | 12 | 14 | 8.0 | 16.1 | 0.00 | 0.03 | 0.00 | 65 | 908.5 |
| 20260504192125 | 12 | 23 | 8.0 | 14.5 | 0.00 | 0.03 | 0.00 | 64 | 908.5 |
| 20260504191625 | 12 | 29 | 8.0 | 17.7 | 0.00 | 0.03 | 0.00 | 66 | 908.5 |
| 20260504191125 | 12 | 15 | 8.0 | 16.1 | 0.00 | 0.03 | 0.00 | 68 | 908.4 |
| 20260504190625 | 12 | 23 | 6.4 | 19.3 | 0.00 | 0.03 | 0.00 | 66 | 908.4 |
| 20260504190125 | 12 | 33 | 6.4 | 12.9 | 0.00 | 0.03 | 0.00 | 69 | 908.4 |
| 20260504185625 | 12 | 25 | 8.0 | 17.7 | 0.00 | 0.03 | 0.00 | 68 | 908.4 |
| 20260504185125 | 12 | 23 | 9.7 | 17.7 | 0.00 | 0.03 | 0.00 | 67 | 908.3 |
| 20260504184625 | 12 | 23 | 8.0 | 16.1 | 0.00 | 0.03 | 0.00 | 66 | 908.2 |
| 20260504184125 | 12 | 33 | 6.4 | 11.3 | 0.00 | 0.03 | 0.00 | 70 | 908.2 |
| 20260504183625 | 12 | 37 | 6.4 | 14.5 | 0.00 | 0.03 | 0.00 | 66 | 908.2 |
| 20260504183125 | 12 | 342 | 8.0 | 14.5 | 0.00 | 0.03 | 0.00 | 68 | 908.1 |
| 20260504182625 | 12 | 43 | 8.0 | 20.9 | 0.00 | 0.03 | 0.00 | 67 | 908.0 |
| 20260504182125 | 12 | 35 | 8.0 | 16.1 | 0.00 | 0.03 | 0.00 | 70 | 907.9 |
| 20260504181625 | 12 | 354 | 8.0 | 17.7 | 0.00 | 0.03 | 0.00 | 65 | 907.8 |
| 20260504181125 | 12 | 33 | 8.0 | 14.5 | 0.00 | 0.03 | 0.00 | 66 | 907.8 |
| 20260504180625 | 12 | 25 | 6.4 | 16.1 | 0.00 | 0.03 | 0.00 | 67 | 907.8 |
| 20260504180125 | 12 | 28 | 9.7 | 12.9 | 0.00 | 0.03 | 0.00 | 69 | 907.6 |
| 20260504175625 | 12 | 20 | 9.7 | 19.3 | 0.00 | 0.03 | 0.00 | 66 | 907.6 |
| 20260504175125 | 12 | 33 | 8.0 | 19.3 | 0.00 | 0.03 | 0.00 | 67 | 907.6 |
| 20260504174625 | 12 | 30 | 9.7 | 17.7 | 0.00 | 0.03 | 0.00 | 70 | 907.6 |
| 20260504174125 | 12 | 31 | 8.0 | 17.7 | 0.00 | 0.03 | 0.00 | 69 | 907.5 |
| 20260504173625 | 12 | 29 | 8.0 | 14.5 | 0.00 | 0.03 | 0.00 | 68 | 907.5 |
| 20260504173125 | 12 | 37 | 8.0 | 14.5 | 0.00 | 0.03 | 0.00 | 67 | 907.4 |
| 20260504172625 | 12 | 14 | 8.0 | 16.1 | 0.00 | 0.03 | 0.00 | 66 | 907.4 |
| 20260504172125 | 12 | 35 | 9.7 | 16.1 | 0.00 | 0.03 | 0.00 | 67 | 907.2 |
| 20260504171625 | 12 | 26 | 9.7 | 19.3 | 0.00 | 0.03 | 0.00 | 67 | 907.1 |
| 20260504171125 | 12 | 35 | 9.7 | 19.3 | 0.00 | 0.03 | 0.00 | 65 | 907.0 |
| 20260504170625 | 13 | 40 | 9.7 | 19.3 | 0.00 | 0.03 | 0.00 | 65 | 907.0 |
| 20260504170125 | 13 | 41 | 11.3 | 19.3 | 0.00 | 0.03 | 0.00 | 66 | 906.9 |
| 20260504160125 | 13 | 29 | 12.9 | 20.9 | 0.00 | 0.03 | 0.03 | 60 | 906.2 |
| 20260504151125 | 13 | 4 | 8.0 | 19.3 | 0.00 | 0.03 | 0.03 | 65 | 905.8 |
| 20260504150626 | 13 | 32 | 8.0 | 20.9 | 0.00 | 0.03 | 0.03 | 65 | 905.9 |
| 20260504150126 | 14 | 43 | 8.0 | 17.7 | 0.00 | 0.03 | 0.03 | 64 | 905.9 |
| 20260504141126 | 14 | 39 | 11.3 | 24.1 | 0.00 | 0.03 | 0.03 | 65 | 905.5 |
| 20260504140626 | 14 | 39 | 11.3 | 20.9 | 0.00 | 0.03 | 0.03 | 62 | 905.6 |
| 20260504140126 | 14 | 33 | 11.3 | 20.9 | 0.00 | 0.03 | 0.03 | 63 | 905.6 |
| 20260504130626 | 15 | 23 | 12.9 | 22.5 | 0.00 | 0.03 | 0.03 | 67 | 904.9 |
| 20260504130126 | 15 | 4 | 12.9 | 24.1 | 0.00 | 0.03 | 0.03 | 63 | 904.9 |
| 20260504120126 | 15 | 28 | 11.3 | 22.5 | 0.00 | 0.03 | 0.03 | 66 | 904.2 |
| 20260504110626 | 15 | 35 | 11.3 | 27.4 | 0.00 | 0.03 | 0.03 | 65 | 903.1 |
| 20260504110126 | 16 | 36 | 9.7 | 27.4 | 0.00 | 0.03 | 0.03 | 67 | 903.1 |
| 20260504100126 | 16 | 16 | 12.9 | 24.1 | 0.00 | 0.03 | 0.03 | 64 | 901.8 |